Weather History for North Platte, NE

Change the Weather History Date:

Wednesday, January 16, 2013

  Actual Average Record
Temperature  
Mean Temperature 36 °F 25 °F  
Max Temperature 51 °F 39 °F 65 °F (1951)
Min Temperature 21 °F 11 °F -19 °F (1930)
Degree Days  
Heating Degree Days 29 40  
Month to date heating degree days 701 645  
Since 1 July heating degree days 3416 3425  
Cooling Degree Days 0 0  
Month to date cooling degree days 0 0  
Year to date cooling degree days 0 0  
Moisture  
Dew Point 23 °F    
Average Humidity 62    
Maximum Humidity 88    
Minimum Humidity 36    
Precipitation  
Precipitation 0.00 in 0.01 in 0.32 in (1889)
Month to date precipitation 0.03 0.18  
Year to date precipitation 0.03 0.18  
Snow  
Snow 0.00 in 0.10 in 3.50 in (1889)
Month to date snowfall 0.7 2.5  
Since 1 July snowfall 8.6 13.3  
Snow Depth T in    
Sea Level Pressure  
Sea Level Pressure 30.17 in    
Wind  
Wind Speed 13 mph (WNW)    
Max Wind Speed 29 mph    
Max Gust Speed 36 mph    
Visibility 10 miles    
Events      
T = Trace of Precipitation, MM = Missing Value Source: NWS Daily Summary

Daily Weather History Graph

Daily Weather History Graph

Search for Another Location

Airport:

Trip Planner

Search our weather history database for the weather conditions in past years. The results will help you decide how hot, cold, wet, or windy it might be!

Date:

Astronomy

Jan. 16, 2013 Rise Set
Actual Time 8:05 AM CST 5:40 PM CST
Civil Twilight 7:34 AM CST 6:10 PM CST
Nautical Twilight 7:00 AM CST 6:44 PM CST
Astronomical Twilight 6:28 AM CST 7:17 PM CST
Moon 10:39 AM CST (1/16) 11:37 PM CST (1/16)
Length of Visible Light 10h 35m
Length of Day
9h 35m
Waxing Crescent, 28% of the Moon is Illuminated
Jan 16
Waxing Crescent
Jan 18
First Quarter
Jan 26
Full
Feb 3
Last Quarter
Feb 10
New

Hourly Weather History & Observations

Time (CST) Temp. Windchill Dew Point Humidity Pressure Visibility Wind Dir Wind Speed Gust Speed Precip Events Conditions
12:53 AM 28.9 °F 19.8 °F 23.0 °F 78% 30.07 in 10.0 mi WNW 10.4 mph - N/A   Overcast
1:53 AM 30.9 °F 22.2 °F 25.0 °F 79% 30.06 in 10.0 mi WNW 10.4 mph - N/A   Overcast
2:53 AM 32.0 °F 23.0 °F 24.8 °F 75% 29.99 in 10.0 mi West 11.5 mph - N/A   Overcast
3:53 AM 34.0 °F 25.5 °F 26.1 °F 73% 30.06 in 10.0 mi WNW 11.5 mph - N/A   Overcast
4:53 AM 33.1 °F 23.4 °F 25.0 °F 72% 30.06 in 10.0 mi WNW 13.8 mph 20.7 mph N/A   Scattered Clouds
5:53 AM 30.2 °F 19.8 °F 23.0 °F 75% 30.00 in 10.0 mi West 13.8 mph - N/A   Scattered Clouds
6:53 AM 28.9 °F 19.2 °F 21.0 °F 72% 30.12 in 10.0 mi WNW 11.5 mph - N/A   Partly Cloudy
7:53 AM 26.1 °F 16.8 °F 19.0 °F 75% 30.15 in 10.0 mi West 9.2 mph - N/A   Clear
8:53 AM 30.0 °F 20.5 °F 21.0 °F 69% 30.17 in 10.0 mi WNW 11.5 mph - N/A   Mostly Cloudy
9:53 AM 36.0 °F 27.1 °F 23.0 °F 59% 30.15 in 10.0 mi WNW 13.8 mph - N/A   Clear
10:53 AM 39.9 °F 31.8 °F 24.1 °F 53% 30.14 in 10.0 mi WNW 15.0 mph - N/A   Clear
11:53 AM 44.1 °F 36.5 °F 26.1 °F 49% 30.12 in 10.0 mi WNW 17.3 mph - N/A   Clear
12:53 PM 48.9 °F - 25.0 °F 39% 30.11 in 10.0 mi WNW 25.3 mph 32.2 mph N/A   Clear
1:53 PM 50.0 °F - 25.0 °F 38% 30.10 in 10.0 mi NW 21.9 mph 28.8 mph N/A   Clear
2:53 PM 50.0 °F - 25.0 °F 38% 30.10 in 10.0 mi NW 23.0 mph 31.1 mph N/A   Clear
3:53 PM 46.9 °F - 24.1 °F 41% 30.14 in 10.0 mi NW 16.1 mph 28.8 mph N/A   Clear
4:53 PM 46.0 °F 39.6 °F 24.1 °F 42% 30.18 in 10.0 mi NW 15.0 mph 23.0 mph N/A   Clear
5:53 PM 39.9 °F 33.9 °F 24.1 °F 53% 30.22 in 10.0 mi NW 9.2 mph - N/A   Clear
6:53 PM 35.1 °F 27.9 °F 24.1 °F 64% 30.27 in 10.0 mi WNW 9.2 mph - N/A   Clear
7:53 PM 30.0 °F 21.7 °F 23.0 °F 75% 30.31 in 10.0 mi West 9.2 mph - N/A   Clear
8:53 PM 32.0 °F 24.8 °F 24.1 °F 73% 30.32 in 10.0 mi WSW 8.1 mph - N/A   Clear
9:53 PM 24.1 °F 17.0 °F 19.9 °F 84% 30.34 in 10.0 mi WNW 5.8 mph - N/A   Clear
10:53 PM 23.0 °F 14.7 °F 19.0 °F 85% 30.35 in 10.0 mi West 6.9 mph - N/A   Clear
11:53 PM 21.0 °F 14.6 °F 18.0 °F 88% 30.36 in 10.0 mi NW 4.6 mph - N/A   Clear